Weather History for Columbus AFB, MS

Change the Weather History Date:

Saturday, January 19, 2013

  Actual Average Record
Temperature  
Mean Temperature 42 °F -  
Max Temperature 58 °F 52 °F 66 °F (1999)
Min Temperature 26 °F 32 °F 24 °F (1997)
Degree Days  
Heating Degree Days 23    
Moisture  
Dew Point 32 °F    
Average Humidity 76    
Maximum Humidity 97    
Minimum Humidity 40    
Precipitation  
Precipitation 0.00 in - - ()
Sea Level Pressure  
Sea Level Pressure 30.34 in    
Wind  
Wind Speed 1 mph (South)    
Max Wind Speed 9 mph    
Max Gust Speed -    
Visibility 10 miles    
Events      
Averages and records for this station are not official NWS values.
T = Trace of Precipitation, MM = Missing Value Source: NWS Daily Summary

Daily Weather History Graph

Daily Weather History Graph

Search for Another Location

Airport:

Trip Planner

Search our weather history database for the weather conditions in past years. The results will help you decide how hot, cold, wet, or windy it might be!

Date:

Astronomy

Jan. 19, 2013 Rise Set
Actual Time 6:56 AM CST 5:12 PM CST
Civil Twilight 6:30 AM CST 5:39 PM CST
Nautical Twilight 5:59 AM CST 6:09 PM CST
Astronomical Twilight 5:30 AM CST 6:39 PM CST
Moon 11:35 AM CST (1/19) 12:35 AM CST (1/19)
Length of Visible Light 11h 09m
Length of Day
10h 15m
First Quarter, 57% of the Moon is Illuminated
Jan 19
First Quarter
Jan 26
Full
Feb 3
Last Quarter
Feb 10
New
Feb 17
First Quarter

Hourly Weather History & Observations

Time (CST) Temp. Windchill Dew Point Humidity Pressure Visibility Wind Dir Wind Speed Gust Speed Precip Events Conditions
12:55 AM 30.0 °F - 29.1 °F 96% 30.42 in 10.0 mi Calm Calm - N/A   Clear
1:55 AM 28.4 °F - 27.3 °F 96% 30.42 in 10.0 mi Calm Calm - N/A   Clear
2:55 AM 27.7 °F - 26.8 °F 96% 30.41 in 10.0 mi Calm Calm - N/A   Clear
3:55 AM 28.4 °F - 27.1 °F 95% 30.40 in 10.0 mi Calm Calm - N/A   Clear
4:55 AM 26.6 °F - 25.3 °F 95% 30.40 in 10.0 mi Calm Calm - N/A   Clear
5:55 AM 27.5 °F - 26.4 °F 96% 30.40 in 10.0 mi Calm Calm - N/A   Clear
6:55 AM 26.6 °F - 25.7 °F 96% 30.41 in 10.0 mi Calm Calm - N/A   Clear
7:55 AM 29.7 °F - 28.9 °F 97% 30.41 in 10.0 mi Calm Calm - N/A   Clear
8:55 AM 38.3 °F 33.9 °F 34.7 °F 87% 30.42 in 10.0 mi SE 5.8 mph - N/A   Clear
9:39 AM 44.6 °F - 35.6 °F 71% 30.42 in 10.0 mi Calm Calm - N/A   Clear
9:48 AM 46.4 °F 45.2 °F 35.6 °F 66% 30.42 in 10.0 mi South 3.5 mph - N/A   Clear
9:55 AM 47.1 °F - 34.9 °F 62% 30.42 in 10.0 mi South 4.6 mph - 0.00 in   Clear
10:55 AM 52.7 °F - 34.7 °F 50% 30.40 in 10.0 mi South 9.2 mph - N/A   Clear
11:55 AM 54.1 °F - 34.0 °F 47% 30.35 in 10.0 mi Variable 4.6 mph - N/A   Clear
12:55 PM 55.4 °F - 34.3 °F 45% 30.31 in 10.0 mi WSW 5.8 mph - N/A   Clear
1:55 PM 57.6 °F - 33.8 °F 41% 30.28 in 10.0 mi Variable 3.5 mph - N/A   Clear
2:55 PM 58.1 °F - 33.8 °F 40% 30.27 in 10.0 mi SSW 4.6 mph - N/A   Clear
3:55 PM 57.0 °F - 33.8 °F 42% 30.27 in 10.0 mi South 4.6 mph - N/A   Clear
4:55 PM 51.4 °F - 36.7 °F 57% 30.26 in 10.0 mi SSE 5.8 mph - N/A   Clear
5:55 PM 46.8 °F - 36.1 °F 67% 30.27 in 10.0 mi Calm Calm - N/A   Clear
6:55 PM 41.0 °F 39.0 °F 36.0 °F 82% 30.27 in 10.0 mi SSE 3.5 mph - N/A   Clear
7:55 PM 38.5 °F - 34.5 °F 86% 30.27 in 10.0 mi Calm Calm - N/A   Clear
8:55 PM 37.2 °F - 34.2 °F 89% 30.27 in 10.0 mi Calm Calm - N/A   Clear
9:55 PM 36.7 °F - 33.8 °F 89% 30.25 in 10.0 mi Calm Calm - N/A   Clear
10:55 PM 35.2 °F - 33.1 °F 92% 30.25 in 10.0 mi Calm Calm - N/A   Clear
11:55 PM 34.2 °F - 32.5 °F 94% 30.25 in 10.0 mi Calm Calm - N/A   Clear